owner,sensor,date,latitude,longitude,vertical_datum,mass_concentration_of_oxygen_in_sea_water,qcFlag 
DISL,ioos:station:DISL:DISL:1,2011-02-01T00:00:00Z,30.2513,-88.0778,6.602,9.16,1111122 
DISL,ioos:station:DISL:DISL:1,2011-02-01T00:30:00Z,30.2513,-88.0778,6.657,9.16,1111122 
DISL,ioos:station:DISL:DISL:1,2011-02-01T01:00:00Z,30.2513,-88.0778,6.83,9.13,1111122 
DISL,ioos:station:DISL:DISL:1,2011-02-01T01:30:00Z,30.2513,-88.0778,6.775,9.13,1111122 
DISL,ioos:station:DISL:DISL:1,2011-02-01T02:00:00Z,30.2513,-88.0778,6.882,8.95,1111122 
DISL,ioos:station:DISL:DISL:1,2011-02-01T02:30:00Z,30.2513,-88.0778,6.868,8.87,1111122 
DISL,ioos:station:DISL:DISL:1,2011-02-01T03:00:00Z,30.2513,-88.0778,6.872,8.8,1111122 
DISL,ioos:station:DISL:DISL:1,2011-02-01T03:30:00Z,30.2513,-88.0778,6.845,8.86,1111122 
DISL,ioos:station:DISL:DISL:1,2011-02-01T04:00:00Z,30.2513,-88.0778,6.891,9.23,1111122 
DISL,ioos:station:DISL:DISL:1,2011-02-01T04:30:00Z,30.2513,-88.0778,6.828,9.18,1111122 
DISL,ioos:station:DISL:DISL:1,2011-02-01T05:00:00Z,30.2513,-88.0778,6.739,9.2,1111122 
DISL,ioos:station:DISL:DISL:1,2011-02-01T05:30:00Z,30.2513,-88.0778,6.724,9.18,1111122 
DISL,ioos:station:DISL:DISL:1,2011-02-01T06:00:00Z,30.2513,-88.0778,6.599,8.69,1111122 
DISL,ioos:station:DISL:DISL:1,2011-02-01T06:30:00Z,30.2513,-88.0778,6.514,9.04,1111122 
DISL,ioos:station:DISL:DISL:1,2011-02-01T07:00:00Z,30.2513,-88.0778,6.35,9.65,1111122 
DISL,ioos:station:DISL:DISL:1,2011-02-01T07:30:00Z,30.2513,-88.0778,6.278,9.72,1111122 
DISL,ioos:station:DISL:DISL:1,2011-02-01T08:00:00Z,30.2513,-88.0778,6.186,9.75,1111122 
DISL,ioos:station:DISL:DISL:1,2011-02-01T08:30:00Z,30.2513,-88.0778,6.121,9.77,1111122 
DISL,ioos:station:DISL:DISL:1,2011-02-01T09:00:00Z,30.2513,-88.0778,6.026,9.83,1111122 
DISL,ioos:station:DISL:DISL:1,2011-02-01T09:30:00Z,30.2513,-88.0778,5.94,9.71,1111122 
DISL,ioos:station:DISL:DISL:1,2011-02-01T10:00:00Z,30.2513,-88.0778,5.842,9.54,1111122 
DISL,ioos:station:DISL:DISL:1,2011-02-01T10:30:00Z,30.2513,-88.0778,5.725,9.55,1111122 
DISL,ioos:station:DISL:DISL:1,2011-02-01T11:00:00Z,30.2513,-88.0778,5.624,9.58,1111122 
DISL,ioos:station:DISL:DISL:1,2011-02-01T11:30:00Z,30.2513,-88.0778,5.577,9.62,1111122 
DISL,ioos:station:DISL:DISL:1,2011-02-01T12:00:00Z,30.2513,-88.0778,5.558,9.64,1111122 
DISL,ioos:station:DISL:DISL:1,2011-02-01T12:30:00Z,30.2513,-88.0778,5.509,9.61,1111122 
DISL,ioos:station:DISL:DISL:1,2011-02-01T13:00:00Z,30.2513,-88.0778,5.438,9.65,1111122 
DISL,ioos:station:DISL:DISL:1,2011-02-01T13:30:00Z,30.2513,-88.0778,5.435,9.62,1111122 
DISL,ioos:station:DISL:DISL:1,2011-02-01T14:00:00Z,30.2513,-88.0778,5.456,9.67,1111122 
DISL,ioos:station:DISL:DISL:1,2011-02-01T14:30:00Z,30.2513,-88.0778,5.444,9.7,1111122 
DISL,ioos:station:DISL:DISL:1,2011-02-01T15:00:00Z,30.2513,-88.0778,5.463,9.61,1111122 
DISL,ioos:station:DISL:DISL:1,2011-02-01T15:30:00Z,30.2513,-88.0778,5.464,9.62,1111122 
DISL,ioos:station:DISL:DISL:1,2011-02-01T16:00:00Z,30.2513,-88.0778,5.498,9.42,1111122 
DISL,ioos:station:DISL:DISL:1,2011-02-01T16:30:00Z,30.2513,-88.0778,5.503,9.28,1111122 
DISL,ioos:station:DISL:DISL:1,2011-02-01T17:00:00Z,30.2513,-88.0778,5.502,9.28,1111122 
DISL,ioos:station:DISL:DISL:1,2011-02-01T17:30:00Z,30.2513,-88.0778,5.477,9.27,1111122 
DISL,ioos:station:DISL:DISL:1,2011-02-01T18:00:00Z,30.2513,-88.0778,5.581,9.28,1111122 
DISL,ioos:station:DISL:DISL:1,2011-02-01T18:30:00Z,30.2513,-88.0778,5.673,9.24,1111122 
DISL,ioos:station:DISL:DISL:1,2011-02-01T19:00:00Z,30.2513,-88.0778,5.768,9.13,1111122 
DISL,ioos:station:DISL:DISL:1,2011-02-01T19:30:00Z,30.2513,-88.0778,5.816,9.39,1111122 
DISL,ioos:station:DISL:DISL:1,2011-02-01T20:00:00Z,30.2513,-88.0778,5.943,9.3,1111122 
DISL,ioos:station:DISL:DISL:1,2011-02-01T20:30:00Z,30.2513,-88.0778,6.063,9.17,1111122 
DISL,ioos:station:DISL:DISL:1,2011-02-01T21:00:00Z,30.2513,-88.0778,6.155,9.27,1111122 
DISL,ioos:station:DISL:DISL:1,2011-02-01T21:30:00Z,30.2513,-88.0778,6.231,9.38,1111122 
DISL,ioos:station:DISL:DISL:1,2011-02-01T22:00:00Z,30.2513,-88.0778,6.302,9.5,1111122 
DISL,ioos:station:DISL:DISL:1,2011-02-01T22:30:00Z,30.2513,-88.0778,6.519,9.47,1111122 
DISL,ioos:station:DISL:DISL:1,2011-02-01T23:00:00Z,30.2513,-88.0778,6.713,9.39,1111122 
DISL,ioos:station:DISL:DISL:1,2011-02-01T23:30:00Z,30.2513,-88.0778,6.752,9.28,1111122 
DISL,ioos:station:DISL:DISL:1,2011-02-02T00:00:00Z,30.2513,-88.0778,6.815,9.11,1111122 
DISL,ioos:station:DISL:DISL:1,2011-02-02T00:30:00Z,30.2513,-88.0778,6.861,8.97,1111122 
DISL,ioos:station:DISL:DISL:1,2011-02-02T01:00:00Z,30.2513,-88.0778,7.1,8.82,1111122 
DISL,ioos:station:DISL:DISL:1,2011-02-02T01:30:00Z,30.2513,-88.0778,7.27,8.8,1111122 
DISL,ioos:station:DISL:DISL:1,2011-02-02T02:00:00Z,30.2513,-88.0778,7.32,8.81,1111122 
DISL,ioos:station:DISL:DISL:1,2011-02-02T02:30:00Z,30.2513,-88.0778,7.31,8.83,1111122 
DISL,ioos:station:DISL:DISL:1,2011-02-02T03:00:00Z,30.2513,-88.0778,7.36,8.77,1111122 
DISL,ioos:station:DISL:DISL:1,2011-02-02T03:30:00Z,30.2513,-88.0778,7.13,8.69,1111122 
DISL,ioos:station:DISL:DISL:1,2011-02-02T04:00:00Z,30.2513,-88.0778,7.09,8.69,1111122 
DISL,ioos:station:DISL:DISL:1,2011-02-02T04:30:00Z,30.2513,-88.0778,7.13,8.72,1111122 
DISL,ioos:station:DISL:DISL:1,2011-02-02T05:00:00Z,30.2513,-88.0778,7.09,8.57,1111122 
DISL,ioos:station:DISL:DISL:1,2011-02-02T05:30:00Z,30.2513,-88.0778,7.07,8.66,1111122 
DISL,ioos:station:DISL:DISL:1,2011-02-02T06:00:00Z,30.2513,-88.0778,6.86,8.68,1111122 
DISL,ioos:station:DISL:DISL:1,2011-02-02T06:30:00Z,30.2513,-88.0778,6.864,8.63,1111122 
DISL,ioos:station:DISL:DISL:1,2011-02-02T07:00:00Z,30.2513,-88.0778,6.753,8.67,1111122 
DISL,ioos:station:DISL:DISL:1,2011-02-02T07:30:00Z,30.2513,-88.0778,6.389,8.66,1111122 
DISL,ioos:station:DISL:DISL:1,2011-02-02T08:00:00Z,30.2513,-88.0778,6.445,8.71,1111122 
DISL,ioos:station:DISL:DISL:1,2011-02-02T08:30:00Z,30.2513,-88.0778,6.337,8.72,1111122 
DISL,ioos:station:DISL:DISL:1,2011-02-02T09:00:00Z,30.2513,-88.0778,6.096,8.73,1111122 
DISL,ioos:station:DISL:DISL:1,2011-02-02T09:30:00Z,30.2513,-88.0778,5.907,8.81,1111122 
DISL,ioos:station:DISL:DISL:1,2011-02-02T10:00:00Z,30.2513,-88.0778,6.083,8.82,1111122 
DISL,ioos:station:DISL:DISL:1,2011-02-02T10:30:00Z,30.2513,-88.0778,5.741,8.9,1111122 
DISL,ioos:station:DISL:DISL:1,2011-02-02T11:00:00Z,30.2513,-88.0778,5.522,8.9,1111122 
DISL,ioos:station:DISL:DISL:1,2011-02-02T11:30:00Z,30.2513,-88.0778,5.757,8.75,1111122 
DISL,ioos:station:DISL:DISL:1,2011-02-02T12:00:00Z,30.2513,-88.0778,5.638,8.87,1111122 
DISL,ioos:station:DISL:DISL:1,2011-02-02T12:30:00Z,30.2513,-88.0778,5.515,8.92,1111122 
DISL,ioos:station:DISL:DISL:1,2011-02-02T13:00:00Z,30.2513,-88.0778,5.831,8.99,1111122 
DISL,ioos:station:DISL:DISL:1,2011-02-02T13:30:00Z,30.2513,-88.0778,5.834,9.02,1111122 
DISL,ioos:station:DISL:DISL:1,2011-02-02T14:00:00Z,30.2513,-88.0778,5.386,9.07,1111122 
DISL,ioos:station:DISL:DISL:1,2011-02-02T14:30:00Z,30.2513,-88.0778,5.209,9.16,1111122 
DISL,ioos:station:DISL:DISL:1,2011-02-02T15:00:00Z,30.2513,-88.0778,5.365,9.47,1111122 
DISL,ioos:station:DISL:DISL:1,2011-02-02T15:30:00Z,30.2513,-88.0778,5.74,9.39,1111122 
DISL,ioos:station:DISL:DISL:1,2011-02-02T16:00:00Z,30.2513,-88.0778,5.475,9.61,1111122 
DISL,ioos:station:DISL:DISL:1,2011-02-02T16:30:00Z,30.2513,-88.0778,5.594,9.52,1111122 
DISL,ioos:station:DISL:DISL:1,2011-02-02T17:00:00Z,30.2513,-88.0778,5.37,9.51,1111122 
DISL,ioos:station:DISL:DISL:1,2011-02-02T17:30:00Z,30.2513,-88.0778,5.342,9.57,1111122 
DISL,ioos:station:DISL:DISL:1,2011-02-02T18:00:00Z,30.2513,-88.0778,5.374,9.54,1111122 
DISL,ioos:station:DISL:DISL:1,2011-02-02T18:30:00Z,30.2513,-88.0778,5.453,9.54,1111122 
DISL,ioos:station:DISL:DISL:1,2011-02-02T19:00:00Z,30.2513,-88.0778,5.369,9.54,1111122 
DISL,ioos:station:DISL:DISL:1,2011-02-02T19:30:00Z,30.2513,-88.0778,5.426,9.55,1111122 
DISL,ioos:station:DISL:DISL:1,2011-02-02T20:00:00Z,30.2513,-88.0778,5.347,9.66,1111122 
DISL,ioos:station:DISL:DISL:1,2011-02-02T20:30:00Z,30.2513,-88.0778,5.486,9.58,1111122 
DISL,ioos:station:DISL:DISL:1,2011-02-02T21:00:00Z,30.2513,-88.0778,5.546,9.7,1111122 
DISL,ioos:station:DISL:DISL:1,2011-02-02T21:30:00Z,30.2513,-88.0778,5.575,9.78,1111122 
DISL,ioos:station:DISL:DISL:1,2011-02-02T22:00:00Z,30.2513,-88.0778,5.599,9.81,1111122 
DISL,ioos:station:DISL:DISL:1,2011-02-02T22:30:00Z,30.2513,-88.0778,5.447,10.1,1111122 
DISL,ioos:station:DISL:DISL:1,2011-02-02T23:00:00Z,30.2513,-88.0778,5.658,10.02,1111122 
DISL,ioos:station:DISL:DISL:1,2011-02-02T23:30:00Z,30.2513,-88.0778,5.394,10.14,1111122 
DISL,ioos:station:DISL:DISL:1,2011-02-03T00:00:00Z,30.2513,-88.0778,5.833,10.11,1111122 
DISL,ioos:station:DISL:DISL:1,2011-02-03T00:30:00Z,30.2513,-88.0778,5.626,10.07,1111122 
DISL,ioos:station:DISL:DISL:1,2011-02-03T01:00:00Z,30.2513,-88.0778,6.159,9.91,1111122 
DISL,ioos:station:DISL:DISL:1,2011-02-03T01:30:00Z,30.2513,-88.0778,5.843,10.12,1111122 
DISL,ioos:station:DISL:DISL:1,2011-02-03T02:00:00Z,30.2513,-88.0778,6.293,10.15,1111122 
DISL,ioos:station:DISL:DISL:1,2011-02-03T02:30:00Z,30.2513,-88.0778,6.102,9.97,1111122 
DISL,ioos:station:DISL:DISL:1,2011-02-03T03:00:00Z,30.2513,-88.0778,5.799,9.95,1111122 
DISL,ioos:station:DISL:DISL:1,2011-02-03T03:30:00Z,30.2513,-88.0778,6.032,9.94,1111122 
DISL,ioos:station:DISL:DISL:1,2011-02-03T04:00:00Z,30.2513,-88.0778,5.841,10.13,1111122 
DISL,ioos:station:DISL:DISL:1,2011-02-03T04:30:00Z,30.2513,-88.0778,6.069,10.12,1111122 
DISL,ioos:station:DISL:DISL:1,2011-02-03T05:00:00Z,30.2513,-88.0778,5.887,10.14,1111122 
DISL,ioos:station:DISL:DISL:1,2011-02-03T05:30:00Z,30.2513,-88.0778,6.242,10.08,1111122 
DISL,ioos:station:DISL:DISL:1,2011-02-03T06:00:00Z,30.2513,-88.0778,5.683,10.08,1111122 
DISL,ioos:station:DISL:DISL:1,2011-02-03T06:30:00Z,30.2513,-88.0778,6.07,10.21,1111122 
DISL,ioos:station:DISL:DISL:1,2011-02-03T07:00:00Z,30.2513,-88.0778,5.807,10.32,1111122 
DISL,ioos:station:DISL:DISL:1,2011-02-03T07:30:00Z,30.2513,-88.0778,6.018,10.17,1111122 
DISL,ioos:station:DISL:DISL:1,2011-02-03T08:00:00Z,30.2513,-88.0778,5.274,10.14,1111122 
DISL,ioos:station:DISL:DISL:1,2011-02-03T08:30:00Z,30.2513,-88.0778,5.492,10.3,1111122 
DISL,ioos:station:DISL:DISL:1,2011-02-03T09:00:00Z,30.2513,-88.0778,5.139,10.28,1111122 
DISL,ioos:station:DISL:DISL:1,2011-02-03T09:30:00Z,30.2513,-88.0778,5.26,10.42,1111122 
DISL,ioos:station:DISL:DISL:1,2011-02-03T10:00:00Z,30.2513,-88.0778,5.452,10.47,1111122 
DISL,ioos:station:DISL:DISL:1,2011-02-03T10:30:00Z,30.2513,-88.0778,5.282,10.4,1111122 
DISL,ioos:station:DISL:DISL:1,2011-02-03T11:00:00Z,30.2513,-88.0778,5.125,10.19,1111122 
DISL,ioos:station:DISL:DISL:1,2011-02-03T11:30:00Z,30.2513,-88.0778,5.102,10.16,1111122 
DISL,ioos:station:DISL:DISL:1,2011-02-03T12:00:00Z,30.2513,-88.0778,4.897,10.19,1111122 
DISL,ioos:station:DISL:DISL:1,2011-02-03T12:30:00Z,30.2513,-88.0778,5.129,10.22,1111122 
DISL,ioos:station:DISL:DISL:1,2011-02-03T13:00:00Z,30.2513,-88.0778,4.647,10.07,1111122 
DISL,ioos:station:DISL:DISL:1,2011-02-03T13:30:00Z,30.2513,-88.0778,4.866,10.02,1111122 
DISL,ioos:station:DISL:DISL:1,2011-02-03T14:00:00Z,30.2513,-88.0778,4.864,10.01,1111122 
DISL,ioos:station:DISL:DISL:1,2011-02-03T14:30:00Z,30.2513,-88.0778,5.131,10.01,1111122 
DISL,ioos:station:DISL:DISL:1,2011-02-03T15:00:00Z,30.2513,-88.0778,5.013,10.02,1111122 
DISL,ioos:station:DISL:DISL:1,2011-02-03T15:30:00Z,30.2513,-88.0778,5.109,10.35,1111122 
DISL,ioos:station:DISL:DISL:1,2011-02-03T16:00:00Z,30.2513,-88.0778,5.362,10.27,1111122 
DISL,ioos:station:DISL:DISL:1,2011-02-03T16:30:00Z,30.2513,-88.0778,4.917,10.27,1111122 
DISL,ioos:station:DISL:DISL:1,2011-02-03T17:00:00Z,30.2513,-88.0778,5.047,10.39,1111122 
DISL,ioos:station:DISL:DISL:1,2011-02-03T17:30:00Z,30.2513,-88.0778,5.428,10.65,1111122 
DISL,ioos:station:DISL:DISL:1,2011-02-03T18:00:00Z,30.2513,-88.0778,5.032,10.34,1111122 
DISL,ioos:station:DISL:DISL:1,2011-02-03T18:30:00Z,30.2513,-88.0778,5.136,10.3,1111122 
DISL,ioos:station:DISL:DISL:1,2011-02-03T19:00:00Z,30.2513,-88.0778,5.208,10.43,1111122 
DISL,ioos:station:DISL:DISL:1,2011-02-03T19:30:00Z,30.2513,-88.0778,5.298,10.53,1111122 
DISL,ioos:station:DISL:DISL:1,2011-02-03T20:00:00Z,30.2513,-88.0778,5.142,10.48,1111122 
DISL,ioos:station:DISL:DISL:1,2011-02-03T20:30:00Z,30.2513,-88.0778,5.269,10.49,1111122 
DISL,ioos:station:DISL:DISL:1,2011-02-03T21:00:00Z,30.2513,-88.0778,5.48,10.44,1111122 
DISL,ioos:station:DISL:DISL:1,2011-02-03T21:30:00Z,30.2513,-88.0778,5.237,10.41,1111122 
DISL,ioos:station:DISL:DISL:1,2011-02-03T22:00:00Z,30.2513,-88.0778,5.948,10.51,1111122 
DISL,ioos:station:DISL:DISL:1,2011-02-03T22:30:00Z,30.2513,-88.0778,5.753,10.6,1111122 
DISL,ioos:station:DISL:DISL:1,2011-02-03T23:00:00Z,30.2513,-88.0778,5.4,10.67,1111122 
DISL,ioos:station:DISL:DISL:1,2011-02-03T23:30:00Z,30.2513,-88.0778,5.768,10.64,1111122 
DISL,ioos:station:DISL:DISL:1,2011-02-04T00:00:00Z,30.2513,-88.0778,5.266,10.42,1111122 
DISL,ioos:station:DISL:DISL:1,2011-02-04T00:30:00Z,30.2513,-88.0778,5.71,10.51,1111122 
DISL,ioos:station:DISL:DISL:1,2011-02-04T01:00:00Z,30.2513,-88.0778,6.042,10.46,1111122 
DISL,ioos:station:DISL:DISL:1,2011-02-04T01:30:00Z,30.2513,-88.0778,5.934,10.44,1111122 
DISL,ioos:station:DISL:DISL:1,2011-02-04T02:00:00Z,30.2513,-88.0778,6.076,10.46,1111122 
DISL,ioos:station:DISL:DISL:1,2011-02-04T02:30:00Z,30.2513,-88.0778,6.117,9.78,1111122 
DISL,ioos:station:DISL:DISL:1,2011-02-04T03:00:00Z,30.2513,-88.0778,6.118,8.58,1111122 
DISL,ioos:station:DISL:DISL:1,2011-02-04T03:30:00Z,30.2513,-88.0778,5.979,8.52,1111122 
DISL,ioos:station:DISL:DISL:1,2011-02-04T04:00:00Z,30.2513,-88.0778,6.219,8.76,1111122 
DISL,ioos:station:DISL:DISL:1,2011-02-04T04:30:00Z,30.2513,-88.0778,6.288,9.02,1111122 
DISL,ioos:station:DISL:DISL:1,2011-02-04T05:00:00Z,30.2513,-88.0778,6.248,9.16,1111122 
DISL,ioos:station:DISL:DISL:1,2011-02-04T05:30:00Z,30.2513,-88.0778,6.244,9.82,1111122 
DISL,ioos:station:DISL:DISL:1,2011-02-04T06:00:00Z,30.2513,-88.0778,6.221,10.19,1111122 
DISL,ioos:station:DISL:DISL:1,2011-02-04T06:30:00Z,30.2513,-88.0778,6.338,10.45,1111122 
DISL,ioos:station:DISL:DISL:1,2011-02-04T07:00:00Z,30.2513,-88.0778,6.553,10.2,1111122 
DISL,ioos:station:DISL:DISL:1,2011-02-04T07:30:00Z,30.2513,-88.0778,6.192,10.24,1111122 
DISL,ioos:station:DISL:DISL:1,2011-02-04T08:00:00Z,30.2513,-88.0778,6.155,9.93,1111122 
DISL,ioos:station:DISL:DISL:1,2011-02-04T08:30:00Z,30.2513,-88.0778,6.211,10.2,1111122 
DISL,ioos:station:DISL:DISL:1,2011-02-04T09:00:00Z,30.2513,-88.0778,6.06,10.59,1111122 
DISL,ioos:station:DISL:DISL:1,2011-02-04T09:30:00Z,30.2513,-88.0778,6.361,10.59,1111122 
DISL,ioos:station:DISL:DISL:1,2011-02-04T10:00:00Z,30.2513,-88.0778,5.943,10.6,1111122 
DISL,ioos:station:DISL:DISL:1,2011-02-04T10:30:00Z,30.2513,-88.0778,6.057,10.57,1111122 
DISL,ioos:station:DISL:DISL:1,2011-02-04T11:00:00Z,30.2513,-88.0778,6.183,10.53,1111122 
DISL,ioos:station:DISL:DISL:1,2011-02-04T11:30:00Z,30.2513,-88.0778,5.962,10.53,1111122 
DISL,ioos:station:DISL:DISL:1,2011-02-04T12:00:00Z,30.2513,-88.0778,5.905,10.54,1111122 
DISL,ioos:station:DISL:DISL:1,2011-02-04T12:30:00Z,30.2513,-88.0778,5.83,10.53,1111122 
DISL,ioos:station:DISL:DISL:1,2011-02-04T13:00:00Z,30.2513,-88.0778,5.775,10.53,1111122 
DISL,ioos:station:DISL:DISL:1,2011-02-04T13:30:00Z,30.2513,-88.0778,5.67,10.56,1111122 
DISL,ioos:station:DISL:DISL:1,2011-02-04T14:00:00Z,30.2513,-88.0778,5.691,10.59,1111122 
DISL,ioos:station:DISL:DISL:1,2011-02-04T14:30:00Z,30.2513,-88.0778,5.713,10.61,1111122 
DISL,ioos:station:DISL:DISL:1,2011-02-04T15:00:00Z,30.2513,-88.0778,5.669,10.67,1111122 
DISL,ioos:station:DISL:DISL:1,2011-02-04T15:30:00Z,30.2513,-88.0778,5.767,10.5,1111122 
DISL,ioos:station:DISL:DISL:1,2011-02-04T16:00:00Z,30.2513,-88.0778,5.769,9.87,1111122 
DISL,ioos:station:DISL:DISL:1,2011-02-04T16:30:00Z,30.2513,-88.0778,5.808,10.26,1111122 
DISL,ioos:station:DISL:DISL:1,2011-02-04T17:00:00Z,30.2513,-88.0778,5.637,10.33,1111122 
DISL,ioos:station:DISL:DISL:1,2011-02-04T17:30:00Z,30.2513,-88.0778,5.945,10.58,1111122 
DISL,ioos:station:DISL:DISL:1,2011-02-04T18:00:00Z,30.2513,-88.0778,5.975,10.65,1111122 
DISL,ioos:station:DISL:DISL:1,2011-02-04T18:30:00Z,30.2513,-88.0778,5.582,10.85,1111122 
DISL,ioos:station:DISL:DISL:1,2011-02-04T19:00:00Z,30.2513,-88.0778,5.871,10.84,1111122 
DISL,ioos:station:DISL:DISL:1,2011-02-04T19:30:00Z,30.2513,-88.0778,5.877,10.84,1111122 
DISL,ioos:station:DISL:DISL:1,2011-02-04T20:00:00Z,30.2513,-88.0778,5.463,10.81,1111122 
DISL,ioos:station:DISL:DISL:1,2011-02-04T20:30:00Z,30.2513,-88.0778,6.035,10.8,1111122 
DISL,ioos:station:DISL:DISL:1,2011-02-04T21:00:00Z,30.2513,-88.0778,5.426,10.79,1111122 
DISL,ioos:station:DISL:DISL:1,2011-02-04T21:30:00Z,30.2513,-88.0778,5.494,10.83,1111122 
DISL,ioos:station:DISL:DISL:1,2011-02-04T22:00:00Z,30.2513,-88.0778,5.342,10.88,1111122 
DISL,ioos:station:DISL:DISL:1,2011-02-04T22:30:00Z,30.2513,-88.0778,5.604,10.79,1111122 
DISL,ioos:station:DISL:DISL:1,2011-02-04T23:00:00Z,30.2513,-88.0778,5.447,10.67,1111122 
DISL,ioos:station:DISL:DISL:1,2011-02-04T23:30:00Z,30.2513,-88.0778,5.8,10.58,1111122 
DISL,ioos:station:DISL:DISL:1,2011-02-05T00:00:00Z,30.2513,-88.0778,5.802,9.57,1111122 
DISL,ioos:station:DISL:DISL:1,2011-02-05T00:30:00Z,30.2513,-88.0778,5.792,9.45,1111122 
DISL,ioos:station:DISL:DISL:1,2011-02-05T01:00:00Z,30.2513,-88.0778,5.785,9.82,1111122 
DISL,ioos:station:DISL:DISL:1,2011-02-05T01:30:00Z,30.2513,-88.0778,5.662,10.55,1111122 
DISL,ioos:station:DISL:DISL:1,2011-02-05T02:00:00Z,30.2513,-88.0778,5.889,10.65,1111122 
DISL,ioos:station:DISL:DISL:1,2011-02-05T02:30:00Z,30.2513,-88.0778,5.946,10.65,1111122 
DISL,ioos:station:DISL:DISL:1,2011-02-05T03:00:00Z,30.2513,-88.0778,6.002,10.73,1111122 
DISL,ioos:station:DISL:DISL:1,2011-02-05T03:30:00Z,30.2513,-88.0778,6.187,10.75,1111122 
DISL,ioos:station:DISL:DISL:1,2011-02-05T04:00:00Z,30.2513,-88.0778,6.305,9.39,1111122 
DISL,ioos:station:DISL:DISL:1,2011-02-05T04:30:00Z,30.2513,-88.0778,6.284,8.54,1111122 
DISL,ioos:station:DISL:DISL:1,2011-02-05T05:00:00Z,30.2513,-88.0778,6.324,8.43,1111122 
DISL,ioos:station:DISL:DISL:1,2011-02-05T05:30:00Z,30.2513,-88.0778,6.293,8.41,1111122 
DISL,ioos:station:DISL:DISL:1,2011-02-05T06:00:00Z,30.2513,-88.0778,6.378,8.4,1111122 
DISL,ioos:station:DISL:DISL:1,2011-02-05T06:30:00Z,30.2513,-88.0778,6.524,8.43,1111122 
DISL,ioos:station:DISL:DISL:1,2011-02-05T07:00:00Z,30.2513,-88.0778,6.392,9.12,1111122 
DISL,ioos:station:DISL:DISL:1,2011-02-05T07:30:00Z,30.2513,-88.0778,6.351,10.64,1111122 
DISL,ioos:station:DISL:DISL:1,2011-02-05T08:00:00Z,30.2513,-88.0778,6.242,10.78,1111122 
DISL,ioos:station:DISL:DISL:1,2011-02-05T08:30:00Z,30.2513,-88.0778,6.209,10.75,1111122 
DISL,ioos:station:DISL:DISL:1,2011-02-05T09:00:00Z,30.2513,-88.0778,6.125,10.75,1111122 
DISL,ioos:station:DISL:DISL:1,2011-02-05T09:30:00Z,30.2513,-88.0778,6.126,10.75,1111122 
DISL,ioos:station:DISL:DISL:1,2011-02-05T10:00:00Z,30.2513,-88.0778,6.096,10.74,1111122 
DISL,ioos:station:DISL:DISL:1,2011-02-05T10:30:00Z,30.2513,-88.0778,6.073,10.7,1111122 
DISL,ioos:station:DISL:DISL:1,2011-02-05T11:00:00Z,30.2513,-88.0778,5.993,10.7,1111122 
DISL,ioos:station:DISL:DISL:1,2011-02-05T11:30:00Z,30.2513,-88.0778,5.948,10.71,1111122 
DISL,ioos:station:DISL:DISL:1,2011-02-05T12:00:00Z,30.2513,-88.0778,5.913,10.71,1111122 
DISL,ioos:station:DISL:DISL:1,2011-02-05T12:30:00Z,30.2513,-88.0778,5.858,10.7,1111122 
DISL,ioos:station:DISL:DISL:1,2011-02-05T13:00:00Z,30.2513,-88.0778,5.772,10.69,1111122 
DISL,ioos:station:DISL:DISL:1,2011-02-05T13:30:00Z,30.2513,-88.0778,5.73,10.85,1111122 
DISL,ioos:station:DISL:DISL:1,2011-02-05T14:00:00Z,30.2513,-88.0778,5.718,10.72,1111122 
DISL,ioos:station:DISL:DISL:1,2011-02-05T14:30:00Z,30.2513,-88.0778,5.812,10.72,1111122 
DISL,ioos:station:DISL:DISL:1,2011-02-05T15:00:00Z,30.2513,-88.0778,5.825,10.67,1111122 
DISL,ioos:station:DISL:DISL:1,2011-02-05T15:30:00Z,30.2513,-88.0778,5.581,10.7,1111122 
DISL,ioos:station:DISL:DISL:1,2011-02-05T16:00:00Z,30.2513,-88.0778,5.654,10.88,1111122 
DISL,ioos:station:DISL:DISL:1,2011-02-05T16:30:00Z,30.2513,-88.0778,5.531,10.9,1111122 
DISL,ioos:station:DISL:DISL:1,2011-02-05T17:00:00Z,30.2513,-88.0778,5.621,10.93,1111122 
DISL,ioos:station:DISL:DISL:1,2011-02-05T17:30:00Z,30.2513,-88.0778,5.61,10.98,1111122 
DISL,ioos:station:DISL:DISL:1,2011-02-05T18:00:00Z,30.2513,-88.0778,5.53,11.02,1111122 
DISL,ioos:station:DISL:DISL:1,2011-02-05T18:30:00Z,30.2513,-88.0778,5.681,11.09,1111122 
DISL,ioos:station:DISL:DISL:1,2011-02-05T19:00:00Z,30.2513,-88.0778,5.759,11.18,1111122 
DISL,ioos:station:DISL:DISL:1,2011-02-05T19:30:00Z,30.2513,-88.0778,5.797,11.4,1111122 
DISL,ioos:station:DISL:DISL:1,2011-02-05T20:00:00Z,30.2513,-88.0778,5.567,11.45,1111122 
DISL,ioos:station:DISL:DISL:1,2011-02-05T20:30:00Z,30.2513,-88.0778,5.58,11.36,1111122 
DISL,ioos:station:DISL:DISL:1,2011-02-05T21:00:00Z,30.2513,-88.0778,5.613,11.36,1111122 
DISL,ioos:station:DISL:DISL:1,2011-02-05T21:30:00Z,30.2513,-88.0778,5.658,11.38,1111122 
DISL,ioos:station:DISL:DISL:1,2011-02-05T22:00:00Z,30.2513,-88.0778,5.637,11.48,1111122 
DISL,ioos:station:DISL:DISL:1,2011-02-05T22:30:00Z,30.2513,-88.0778,5.642,11.58,1111122 
DISL,ioos:station:DISL:DISL:1,2011-02-05T23:00:00Z,30.2513,-88.0778,5.758,11.65,1111122 
DISL,ioos:station:DISL:DISL:1,2011-02-05T23:30:00Z,30.2513,-88.0778,5.546,11.7,1111122 
DISL,ioos:station:DISL:DISL:1,2011-02-06T00:00:00Z,30.2513,-88.0778,5.611,11.68,1111122 
DISL,ioos:station:DISL:DISL:1,2011-02-06T00:30:00Z,30.2513,-88.0778,5.715,11.69,1111122 
DISL,ioos:station:DISL:DISL:1,2011-02-06T01:00:00Z,30.2513,-88.0778,6.186,11.68,1111122 
DISL,ioos:station:DISL:DISL:1,2011-02-06T01:30:00Z,30.2513,-88.0778,5.685,11.72,1111122 
DISL,ioos:station:DISL:DISL:1,2011-02-06T02:00:00Z,30.2513,-88.0778,5.744,11.77,1111122 
DISL,ioos:station:DISL:DISL:1,2011-02-06T02:30:00Z,30.2513,-88.0778,5.914,11.56,1111122 
DISL,ioos:station:DISL:DISL:1,2011-02-06T03:00:00Z,30.2513,-88.0778,5.929,11.69,1111122 
DISL,ioos:station:DISL:DISL:1,2011-02-06T03:30:00Z,30.2513,-88.0778,5.862,11.68,1111122 
DISL,ioos:station:DISL:DISL:1,2011-02-06T04:00:00Z,30.2513,-88.0778,5.898,11.14,1111122 
DISL,ioos:station:DISL:DISL:1,2011-02-06T04:30:00Z,30.2513,-88.0778,5.855,9.98,1111122 
DISL,ioos:station:DISL:DISL:1,2011-02-06T05:00:00Z,30.2513,-88.0778,5.911,11.53,1111122 
DISL,ioos:station:DISL:DISL:1,2011-02-06T05:30:00Z,30.2513,-88.0778,5.956,11.66,1111122 
DISL,ioos:station:DISL:DISL:1,2011-02-06T06:00:00Z,30.2513,-88.0778,5.88,11.66,1111122 
DISL,ioos:station:DISL:DISL:1,2011-02-06T06:30:00Z,30.2513,-88.0778,6.003,11.65,1111122 
DISL,ioos:station:DISL:DISL:1,2011-02-06T07:00:00Z,30.2513,-88.0778,5.894,11.63,1111122 
DISL,ioos:station:DISL:DISL:1,2011-02-06T07:30:00Z,30.2513,-88.0778,5.942,11.59,1111122 
DISL,ioos:station:DISL:DISL:1,2011-02-06T08:00:00Z,30.2513,-88.0778,5.933,11.58,1111122 
DISL,ioos:station:DISL:DISL:1,2011-02-06T08:30:00Z,30.2513,-88.0778,5.834,11.42,1111122 
DISL,ioos:station:DISL:DISL:1,2011-02-06T09:00:00Z,30.2513,-88.0778,5.943,11.55,1111122 
DISL,ioos:station:DISL:DISL:1,2011-02-06T09:30:00Z,30.2513,-88.0778,5.791,11.42,1111122 
DISL,ioos:station:DISL:DISL:1,2011-02-06T10:00:00Z,30.2513,-88.0778,5.768,11.52,1111122 
DISL,ioos:station:DISL:DISL:1,2011-02-06T10:30:00Z,30.2513,-88.0778,5.698,11.5,1111122 
DISL,ioos:station:DISL:DISL:1,2011-02-06T11:00:00Z,30.2513,-88.0778,5.657,11.32,1111122 
DISL,ioos:station:DISL:DISL:1,2011-02-06T11:30:00Z,30.2513,-88.0778,5.636,11.66,1111122 
DISL,ioos:station:DISL:DISL:1,2011-02-06T12:00:00Z,30.2513,-88.0778,5.599,11.48,1111122 
DISL,ioos:station:DISL:DISL:1,2011-02-06T12:30:00Z,30.2513,-88.0778,5.553,11.37,1111122 
DISL,ioos:station:DISL:DISL:1,2011-02-06T13:00:00Z,30.2513,-88.0778,5.565,11.59,1111122 
DISL,ioos:station:DISL:DISL:1,2011-02-06T13:30:00Z,30.2513,-88.0778,5.535,11.64,1111122 
DISL,ioos:station:DISL:DISL:1,2011-02-06T14:00:00Z,30.2513,-88.0778,5.593,11.66,1111122 
DISL,ioos:station:DISL:DISL:1,2011-02-06T14:30:00Z,30.2513,-88.0778,5.535,11.97,1111122 